Total_Precipitation_Accumulation
0.08 0.36 1.03 2.85 4.79 3.98 3.24 3.43 2.55 1.84 0.80 0.39 0.35 0.45 0.86 1.34 2.05 2.37 0.58 0.40 0.17 0.18 0.53 1.50 2.39 1.80 1.38 1.58 1.34 1.20 0.91 0.95 1.12 0.95 0.68 0.49 0.66 0.84 0.69 0.82 1.17 1.29 0.98 0.69 0.56 0.65 0.80 0.64 0.56
0.23 0.71 2.32 5.55 5.12 4.48 4.55 2.52 2.15 1.54 0.64 0.33 0.24 0.36 0.47 0.40 0.07 0.16 0.27 0.27 0.15 0.11 0.26 0.84 2.36 1.88 1.20 1.25 1.23 1.23 0.88 1.16 1.24 1.28 1.41 1.17 1.12 1.19 1.12 0.98 1.33 1.42 1.30 1.13 1.05 0.88 0.71 0.86 0.95
0.61 1.82 6.43 7.73 6.03 7.57 6.36 3.08 2.27 0.96 0.41 0.18 0.22 0.34 0.23 0.16 0.04 0.11 0.16 0.11 0.26 0.40 0.29 0.77 2.11 1.99 1.49 1.25 1.18 1.46 1.51 1.46 1.31 1.62 1.85 1.83 1.64 1.84 1.87 1.31 1.10 1.01 1.00 1.04 0.89 1.00 1.07 1.14 1.36
0.97 3.37 5.84 5.21 5.64 5.04 3.95 3.01 2.04 0.74 0.49 0.36 0.55 0.30 0.14 0.07 0.01 0.02 0.12 0.22 0.35 0.67 0.63 1.32 1.64 1.72 2.00 1.51 1.54 1.56 1.99 1.98 1.87 1.93 1.86 1.89 2.13 1.90 1.74 1.27 1.06 0.89 0.60 0.45 0.58 0.96 1.14 1.20 1.40
1.25 4.20 8.18 4.72 3.45 3.68 2.16 1.58 1.51 1.17 0.78 0.66 0.33 0.30 0.22 0.11 0.04 0.06 0.07 0.19 0.28 0.40 0.47 0.98 2.20 2.05 1.91 1.72 1.81 1.56 1.77 1.65 1.70 2.20 2.47 2.41 2.19 1.71 1.73 1.16 0.67 0.57 0.34 0.17 0.45 0.78 0.98 1.17 1.20
2.49 4.66 6.51 3.25 2.30 3.76 2.55 1.66 1.70 1.32 1.21 1.07 0.37 0.28 0.28 0.17 0.07 0.10 0.09 0.14 0.22 0.25 0.35 0.95 2.37 3.30 3.27 2.41 1.95 1.58 1.38 1.53 2.04 2.42 2.36 2.30 2.36 2.05 1.42 0.82 0.42 0.30 0.28 0.38 0.32 0.54 1.14 1.24 1.27
2.51 6.79 3.67 2.49 2.08 4.30 3.40 2.18 2.01 1.01 0.77 0.68 0.24 0.22 0.60 0.48 0.29 0.17 0.16 0.30 0.35 0.34 0.83 1.02 1.61 2.91 4.22 4.74 3.08 1.84 1.37 1.46 1.93 2.30 2.41 2.22 1.93 1.60 1.08 0.79 0.38 0.27 0.37 0.38 0.67 0.90 0.94 1.19 1.45
2.88 5.75 5.04 2.46 3.06 3.60 1.54 1.04 1.36 0.92 0.83 0.51 0.28 0.38 1.72 0.75 0.41 0.24 0.28 0.31 0.43 0.63 0.58 1.22 1.79 2.62 3.33 2.43 3.37 2.79 1.69 1.57 1.93 2.08 1.96 2.03 1.74 1.31 0.92 0.70 0.39 0.23 0.41 0.55 0.76 0.91 0.64 1.02 1.18
1.57 5.46 5.07 2.58 2.42 2.38 1.16 1.05 1.66 1.11 0.47 0.32 0.37 0.25 0.16 0.09 0.16 0.24 0.27 0.54 0.43 0.61 0.88 0.87 1.24 1.48 2.11 2.36 2.03 2.37 1.96 2.14 2.47 2.28 2.58 2.43 1.54 0.91 0.77 0.57 0.35 0.23 0.39 0.46 0.65 0.58 0.78 1.19 1.30
3.54 5.91 5.54 2.95 1.52 1.00 0.73 1.19 0.71 0.42 0.49 0.66 0.45 0.30 0.31 0.18 0.17 0.19 0.18 0.27 0.38 0.41 1.01 1.51 1.45 0.88 0.86 1.24 1.71 1.87 2.10 2.80 2.57 1.76 1.98 1.99 0.93 0.67 0.63 0.61 0.39 0.41 0.48 0.66 0.56 0.81 1.42 1.71 2.18
2.71 5.03 3.76 3.18 1.30 0.88 1.02 1.17 0.71 0.40 1.02 1.67 1.25 0.73 0.63 0.21 0.18 0.13 0.15 0.20 0.14 0.21 0.38 1.50 1.03 1.12 0.71 1.02 1.14 1.17 1.64 1.12 0.75 0.90 1.70 1.87 0.84 0.84 0.90 0.57 0.47 0.33 0.95 1.34 1.53 1.34 1.80 1.55 1.92
1.96 2.41 2.56 2.66 1.14 0.93 1.51 1.26 1.38 1.03 1.44 0.55 0.55 0.24 0.17 0.10 0.26 0.25 0.18 0.17 0.23 0.18 0.34 0.39 0.62 0.96 0.76 0.57 0.84 1.14 0.98 0.57 0.43 0.37 0.62 0.72 1.02 1.18 1.34 1.09 1.16 1.04 0.58 1.62 1.87 2.03 0.96 0.92 1.60
1.38 2.43 1.70 2.03 1.64 1.44 0.97 0.94 1.53 1.19 2.26 0.79 0.31 0.12 0.07 0.16 0.44 0.53 0.34 0.24 0.25 0.27 0.24 0.29 0.48 0.86 0.86 1.02 1.24 0.88 0.51 0.49 0.58 0.76 1.00 1.54 0.91 0.85 0.58 1.05 1.17 1.41 0.91 1.63 1.27 1.12 0.82 0.72 0.90
1.03 1.58 1.31 1.51 2.17 1.44 1.53 0.96 0.59 0.70 0.81 0.70 0.36 0.15 0.24 0.27 0.46 0.99 0.86 0.88 0.52 0.50 0.35 0.34 0.65 0.53 0.49 0.64 0.88 0.76 0.69 0.30 0.55 0.76 1.31 1.16 0.79 0.92 0.84 0.94 0.70 1.50 0.95 1.14 1.06 1.01 0.77 0.96 1.21
0.87 1.77 1.78 1.65 1.95 1.79 2.23 2.87 1.28 1.06 0.79 0.62 0.37 0.46 0.49 0.73 1.04 3.11 2.32 1.40 1.08 0.64 0.49 0.41 0.57 0.39 0.39 0.63 0.76 0.97 0.87 0.31 0.42 0.76 0.74 0.46 0.67 0.78 1.22 1.15 0.89 0.54 0.64 0.58 0.65 0.98 0.79 0.84 0.92
2.49 2.75 2.88 2.67 2.08 1.70 2.58 5.66 2.54 1.14 0.84 0.72 0.79 1.06 0.44 1.01 1.41 2.37 1.79 2.24 2.36 0.54 0.57 0.59 0.40 0.16 0.33 0.31 0.67 1.15 1.07 0.46 0.62 0.99 1.06 0.70 0.65 0.61 0.97 1.44 0.79 0.63 0.68 0.81 0.95 1.05 0.83 1.19 1.78
2.02 2.54 3.20 3.07 2.45 2.78 3.28 5.39 3.40 1.16 0.75 0.97 1.22 0.81 0.84 1.65 1.87 1.79 1.17 0.70 0.43 0.56 0.59 1.25 0.85 0.57 0.68 0.52 0.85 1.15 0.66 0.54 0.78 1.03 1.14 0.80 0.39 0.53 1.00 1.89 1.04 0.96 1.36 1.31 0.79 1.07 1.26 1.39 1.10
1.65 1.16 1.94 2.72 2.32 3.29 2.83 2.10 2.32 1.21 2.20 1.37 0.74 0.50 1.59 1.95 1.36 0.76 0.47 0.31 0.19 0.56 0.41 0.69 0.69 0.64 0.84 0.99 1.10 1.12 0.89 0.70 0.54 0.71 0.92 0.94 0.69 0.44 0.74 1.00 0.80 1.57 1.11 1.29 1.02 0.85 0.58 0.85 1.14
0.28 1.08 1.84 2.45 2.44 3.26 2.63 2.10 2.88 1.08 1.71 1.72 0.48 1.03 1.54 1.11 0.85 0.40 0.14 0.33 0.28 0.60 0.27 0.28 0.52 0.62 0.60 0.81 1.01 0.67 0.71 0.81 0.67 0.97 1.64 1.46 1.13 0.58 0.72 0.80 0.80 1.80 1.77 1.71 0.93 0.90 0.65 0.84 0.61
0.23 0.95 1.39 2.34 2.03 3.07 5.05 3.66 2.65 1.37 1.08 0.89 0.70 1.51 1.31 0.38 0.30 0.17 0.09 0.47 0.40 0.19 0.16 0.28 0.39 0.50 0.89 1.00 0.89 0.62 0.38 0.39 0.64 0.77 0.93 0.73 0.54 0.63 0.43 1.11 1.82 1.31 1.22 1.15 0.88 0.87 0.76 0.95 1.27
0.21 0.38 0.73 1.17 1.29 2.03 3.73 5.05 3.36 1.55 1.51 1.47 1.03 0.93 0.45 0.28 0.12 0.05 0.08 0.15 0.58 0.14 0.17 0.26 0.33 0.46 0.80 0.89 0.94 0.80 0.71 0.97 1.16 1.26 1.10 0.71 0.48 0.39 0.60 0.82 1.07 0.98 1.81 1.32 0.82 1.02 0.70 1.48 0.82
0.42 0.28 0.34 0.37 0.50 1.21 0.90 3.34 2.74 1.84 1.71 2.88 1.33 0.89 0.45 0.19 0.24 0.07 0.05 0.07 0.38 0.20 0.03 0.05 0.12 0.31 0.43 0.54 0.74 1.06 0.97 1.04 0.83 0.73 0.62 0.41 0.47 0.49 0.56 0.48 0.59 0.68 0.71 1.14 0.72 0.64 0.62 0.80 1.50
0.08 0.13 0.20 0.45 0.48 0.31 0.41 1.07 1.98 1.52 1.59 1.85 1.51 1.09 0.45 0.12 0.11 0.11 0.26 0.39 0.16 0.11 0.06 0.00 0.04 0.15 0.17 0.38 1.00 1.20 0.81 1.21 1.07 0.65 0.94 0.88 0.67 0.44 0.36 0.49 0.48 0.61 0.47 0.62 0.59 0.86 0.66 0.71 0.80
0.02 0.12 0.22 0.36 0.53 0.42 0.21 0.24 0.99 0.93 1.04 1.35 0.72 0.92 1.18 0.57 0.24 0.31 0.29 0.22 0.16 0.07 0.10 0.07 0.04 0.12 0.12 0.26 0.53 0.85 1.07 1.21 1.12 1.31 1.22 0.87 0.59 0.56 0.50 0.47 0.62 0.64 0.49 0.59 0.58 0.68 0.65 0.70 0.63
0.05 0.17 0.21 0.28 0.21 0.32 0.31 0.49 0.75 0.60 0.55 0.57 0.54 0.84 1.05 1.19 0.57 0.38 0.20 0.27 0.15 0.21 0.07 0.05 0.05 0.08 0.15 0.18 0.32 0.49 0.71 0.76 1.09 0.98 0.87 1.20 0.90 0.43 0.43 0.61 0.74 0.48 0.40 0.40 0.49 0.58 0.50 0.56 0.70
0.01 0.01 0.13 0.36 0.34 0.35 0.48 0.70 0.55 0.15 0.13 0.22 0.32 0.42 0.39 0.39 0.83 0.49 0.47 0.43 0.30 0.61 0.43 0.11 0.09 0.09 0.10 0.24 0.25 0.41 0.56 0.63 0.52 0.41 0.70 0.96 0.63 0.45 0.59 0.66 0.53 0.43 0.51 0.24 0.46 0.33 0.26 0.37 0.49
0.01 0.03 0.04 0.06 0.11 0.08 0.44 1.07 0.90 0.45 0.21 0.29 0.16 0.34 0.44 0.37 0.35 0.45 0.59 0.74 0.49 0.28 0.47 0.48 0.26 0.28 0.28 0.37 0.31 0.33 0.50 0.48 0.42 0.53 0.63 0.65 1.14 0.94 1.33 1.01 0.76 0.48 0.42 0.47 0.59 0.45 0.47 0.65 0.48
0.07 0.16 0.07 0.03 0.08 0.13 0.41 0.88 2.06 1.28 0.95 0.61 0.40 0.23 0.52 0.61 1.02 0.90 0.71 0.88 0.77 0.36 0.24 0.57 0.69 0.29 0.58 0.37 0.32 0.32 0.42 0.34 0.28 0.56 0.68 1.07 1.31 1.44 3.56 2.39 1.07 0.69 0.66 0.58 0.79 0.65 0.51 0.64 0.40
0.05 0.04 0.04 0.03 0.05 0.22 0.56 0.82 1.01 1.65 0.69 0.46 0.63 0.48 0.54 0.71 1.00 2.06 1.84 1.45 1.23 0.95 0.66 1.10 1.42 1.02 0.69 0.48 0.47 0.66 0.59 0.48 0.21 0.25 0.36 0.41 0.68 1.06 1.49 2.85 1.07 0.88 0.69 0.64 1.11 0.97 0.79 1.01 0.66
0.20 0.11 0.15 0.03 0.15 0.29 0.39 0.78 1.00 1.61 0.80 0.45 0.47 0.46 0.53 0.71 0.76 1.29 2.10 2.58 3.10 2.61 2.27 2.51 3.14 2.25 1.48 1.14 0.46 0.92 1.16 1.16 0.47 0.26 0.22 0.21 0.43 0.79 0.86 1.12 1.15 1.07 0.85 0.88 1.25 0.98 0.66 1.15 0.84